Delta, CO

6:12 PM MDT on October 16, 2017 (GMT -0600)
Delta

Weather History for KAJZ - August, 2012

Change the Weather History Date:

Saturday, August 11, 2012

  Actual Average (KMTJ) Record (KMTJ)
Temperature  
Mean Temperature 80 °F -  
Max Temperature 97 °F 85 °F 95 °F (2003)
Min Temperature 63 °F 53 °F 47 °F (2013)
Cooling Degree Days 15    
Growing Degree Days 30 (Base 50)    
Moisture  
Dew Point 47 °F    
Average Humidity 38    
Maximum Humidity 72    
Minimum Humidity 11    
Precipitation  
Precipitation 0.00 in - - ()
Sea Level Pressure  
Sea Level Pressure 30.14 in    
Wind  
Wind Speed 6 mph ()    
Max Wind Speed 29 mph    
Max Gust Speed 40 mph    
Visibility 9.2 miles    
Events Thunderstorm    
Averages and records for this station are not official NWS values.
T = Trace of Precipitation, MM = Missing Value Source: Averaged Metar Reports

Daily Weather History Graph

Daily Weather History Graph

Search for Another Location

Airport or City:

Trip Planner

Search our weather history database for the weather conditions in past years. The results will help you decide how hot, cold, wet, or windy it might be!

Date:

Astronomy

Aug. 11, 2012 Rise Set
Actual Time 6:22 AM MDT 8:11 PM MDT
Civil Twilight 5:54 AM MDT 8:39 PM MDT
Nautical Twilight 5:19 AM MDT 9:14 PM MDT
Astronomical Twilight 4:42 AM MDT 9:51 PM MDT
Moon 12:54 AM MDT (8/11) 3:47 PM MDT (8/11)
Length of Visible Light 14h 45m
Length of Day
13h 48m
Waning Crescent, 32% of the Moon is Illuminated
Aug 11
Waning Crescent
Aug 17
New
Aug 24
First Quarter
Aug 31
Full
Sep 8
Last Quarter

Hourly Weather History & Observations

Time (MDT) Temp. Dew Point Humidity Pressure Visibility Wind Dir Wind Speed Gust Speed Precip Events Conditions
12:15 AM 71.6 °F 56.5 °F 59% 30.16 in 7.0 mi East 6.9 mph - N/A   Clear
12:35 AM 70.0 °F 57.6 °F 65% 30.17 in 7.0 mi East 3.5 mph - N/A   Clear
12:55 AM 70.3 °F 55.9 °F 60% 30.17 in 10.0 mi NNE 5.8 mph - N/A   Clear
1:15 AM 68.9 °F 56.5 °F 65% 30.16 in 7.0 mi NNE 5.8 mph - N/A   Clear
1:35 AM 67.8 °F 57.2 °F 69% 30.16 in 10.0 mi NE 6.9 mph - N/A   Clear
1:55 AM 68.0 °F 57.2 °F 68% 30.15 in 10.0 mi ENE 5.8 mph - N/A   Clear
2:15 AM 68.2 °F 57.6 °F 69% 30.15 in 7.0 mi NNE 8.1 mph - N/A   Clear
2:35 AM 68.4 °F 55.4 °F 63% 30.15 in 7.0 mi NE 9.2 mph - N/A   Clear
2:55 AM 68.5 °F 53.6 °F 59% 30.15 in 10.0 mi ENE 6.9 mph - N/A   Clear
3:15 AM 67.6 °F 53.6 °F 61% 30.15 in 10.0 mi ENE 5.8 mph - N/A   Clear
3:35 AM 66.9 °F 53.2 °F 61% 30.15 in 7.0 mi NE 6.9 mph - N/A   Clear
3:55 AM 65.3 °F 54.1 °F 67% 30.15 in 7.0 mi ENE 5.8 mph - N/A   Clear
4:15 AM 64.9 °F 54.5 °F 69% 30.15 in 7.0 mi NE 3.5 mph - N/A   Clear
4:35 AM 63.5 °F 54.5 °F 72% 30.15 in 7.0 mi ENE 5.8 mph - N/A   Clear
4:55 AM 66.0 °F 52.9 °F 63% 30.16 in 10.0 mi Calm Calm - N/A   Clear
5:15 AM 65.8 °F 54.5 °F 67% 30.16 in 10.0 mi North 5.8 mph - N/A   Scattered Clouds
5:35 AM 65.1 °F 54.7 °F 69% 30.15 in 10.0 mi North 11.5 mph - N/A   Scattered Clouds
5:55 AM 64.4 °F 53.8 °F 68% 30.15 in 10.0 mi NE 9.2 mph - N/A   Clear
6:15 AM 64.6 °F 52.9 °F 66% 30.17 in 10.0 mi NNE 4.6 mph - N/A   Clear
6:35 AM 64.8 °F 52.5 °F 64% 30.19 in 7.0 mi Calm Calm - N/A   Clear
6:55 AM 63.5 °F 53.6 °F 70% 30.19 in 10.0 mi Calm Calm - N/A   Clear
7:15 AM 64.8 °F 54.7 °F 70% 30.19 in 7.0 mi North 4.6 mph - N/A   Clear
7:35 AM 66.2 °F 54.3 °F 65% 30.19 in 10.0 mi ENE 4.6 mph - N/A   Clear
7:55 AM 67.3 °F 54.7 °F 64% 30.19 in 10.0 mi NE 9.2 mph - N/A   Clear
8:15 AM 69.3 °F 54.3 °F 59% 30.19 in 10.0 mi NE 8.1 mph - N/A   Clear
8:35 AM 71.6 °F 54.1 °F 54% 30.19 in 7.0 mi NE 5.8 mph - N/A   Clear
8:55 AM 72.9 °F 53.1 °F 50% 30.19 in 10.0 mi ENE 5.8 mph - N/A   Clear
9:15 AM 74.7 °F 52.3 °F 46% 30.19 in 7.0 mi ENE 3.5 mph - N/A   Clear
9:35 AM 76.1 °F 52.2 °F 43% 30.19 in 10.0 mi East 4.6 mph - N/A   Clear
9:55 AM 77.2 °F 53.8 °F 44% 30.19 in 7.0 mi East 3.5 mph - N/A   Clear
10:15 AM 77.4 °F 53.4 °F 43% 30.19 in 10.0 mi Calm Calm - N/A   Clear
10:35 AM 79.0 °F 50.9 °F 37% 30.18 in 10.0 mi Calm Calm - N/A   Clear
10:55 AM 80.4 °F 48.7 °F 33% 30.18 in 7.0 mi Calm Calm - N/A   Clear
11:15 AM 82.2 °F 48.6 °F 31% 30.18 in 10.0 mi Calm Calm - N/A   Clear
11:35 AM 84.4 °F 49.3 °F 29% 30.18 in 10.0 mi SW 3.5 mph - N/A   Clear
11:55 AM 84.2 °F 49.5 °F 30% 30.17 in 10.0 mi Calm Calm - N/A   Clear
12:15 PM 86.9 °F 49.8 °F 28% 30.16 in 10.0 mi South 3.5 mph - N/A   Clear
12:35 PM 88.5 °F 48.7 °F 25% 30.15 in 10.0 mi WSW 5.8 mph - N/A   Clear
12:55 PM 90.0 °F 47.8 °F 23% 30.14 in 10.0 mi SSW 8.1 mph - N/A   Clear
1:15 PM 91.6 °F 41.4 °F 17% 30.14 in 10.0 mi NW 8.1 mph 17.3 mph N/A   Clear
1:35 PM 93.9 °F 36.9 °F 14% 30.12 in 10.0 mi WNW 19.6 mph 24.2 mph N/A   Clear
1:55 PM 95.7 °F 37.9 °F 13% 30.12 in 10.0 mi West 8.1 mph 20.7 mph N/A   Clear
2:15 PM 95.5 °F 38.3 °F 14% 30.11 in 10.0 mi WNW 13.8 mph 20.7 mph N/A   Clear
2:35 PM 96.3 °F 37.6 °F 13% 30.10 in 10.0 mi WNW 13.8 mph 23.0 mph N/A   Clear
2:55 PM 95.5 °F 36.9 °F 13% 30.09 in 10.0 mi West 17.3 mph - N/A   Clear
3:15 PM 96.3 °F 37.2 °F 13% 30.08 in 10.0 mi WNW 10.4 mph 19.6 mph N/A   Clear
3:35 PM 96.6 °F 37.4 °F 13% 30.07 in 10.0 mi West 9.2 mph 18.4 mph N/A   Clear
3:55 PM 97.2 °F 36.9 °F 12% 30.07 in 10.0 mi West 15.0 mph 24.2 mph N/A   Clear
4:15 PM 96.4 °F 36.7 °F 12% 30.07 in 7.0 mi NW 28.8 mph 40.3 mph N/A   Clear
4:35 PM 92.7 °F 36.0 °F 14% 30.07 in 10.0 mi NW 16.1 mph 31.1 mph N/A   Clear
4:55 PM 94.6 °F 36.5 °F 13% 30.07 in 10.0 mi NNW 12.7 mph - N/A   Clear
5:15 PM 95.2 °F 34.5 °F 12% 30.08 in 10.0 mi WNW 11.5 mph 21.9 mph N/A   Clear
5:35 PM 95.4 °F 35.4 °F 12% 30.08 in 10.0 mi West 13.8 mph 21.9 mph N/A   Clear
5:55 PM 93.9 °F 36.9 °F 14% 30.08 in 10.0 mi NW 11.5 mph 21.9 mph N/A   Clear
6:15 PM 94.1 °F 36.5 °F 13% 30.08 in 10.0 mi West 11.5 mph - N/A   Clear
6:35 PM 93.2 °F 32.0 °F 11% 30.07 in 10.0 mi NW 13.8 mph 17.3 mph N/A   Clear
6:55 PM 91.9 °F 32.0 °F 12% 30.08 in 10.0 mi NW 9.2 mph 18.4 mph N/A   Clear
7:15 PM 91.4 °F 32.7 °F 12% 30.08 in 10.0 mi NW 8.1 mph - N/A   Clear
7:35 PM 90.9 °F 32.4 °F 12% 30.08 in 10.0 mi NW 9.2 mph - N/A   Clear
7:55 PM 90.0 °F 32.9 °F 13% 30.09 in 7.0 mi NW 12.7 mph 17.3 mph N/A   Clear
8:15 PM 88.9 °F 37.4 °F 16% 30.11 in 10.0 mi North 13.8 mph 17.3 mph N/A   Clear
8:35 PM 85.5 °F 41.5 °F 21% 30.11 in 7.0 mi NE 6.9 mph - N/A   Clear
8:55 PM 85.3 °F 39.9 °F 20% 30.12 in 10.0 mi NE 13.8 mph - N/A   Clear
9:15 PM 82.6 °F 40.6 °F 23% 30.13 in 10.0 mi East 4.6 mph - N/A Thunderstorm Clear
9:35 PM 81.7 °F 41.5 °F 24% 30.15 in 10.0 mi ESE 8.1 mph - N/A   Clear
9:55 PM 81.5 °F 41.0 °F 24% 30.15 in 10.0 mi SE 6.9 mph - N/A Thunderstorm Clear
10:15 PM 79.9 °F 42.1 °F 26% 30.16 in 10.0 mi Calm Calm - N/A   Clear
10:55 PM 77.7 °F 49.1 °F 36% 30.18 in 10.0 mi SW 4.6 mph - N/A   Clear
11:15 PM 77.4 °F 48.9 °F 37% 30.17 in 10.0 mi SE 3.5 mph - N/A   Clear
11:35 PM 76.1 °F 48.9 °F 38% 30.17 in 7.0 mi Calm Calm - N/A   Clear
11:55 PM 77.0 °F 47.5 °F 35% 30.17 in 7.0 mi SE 4.6 mph - N/A   Clear